Location: ????????
(60.5616°N, 46.8254°E)
Time: 05:18:13
(UTC+00:00)

Cosmos 1513 Rocket - Pass Details

Date: 18 February 2020
Orbit: 940 x 1007 km, 82.9° (Epoch: 28 March)

Event Time Altitude Azimuth Distance (km) Brightness Sun altitude
Exits shadow 17:19:33 23° 187° (S) 1,896 5.8 -26.1°
Maximum altitude 17:23:33 84° 101° (E) 966 4.3 -26.5°
Drops below altitude 10° 17:29:45 10° 14° (NNE) 2,713 6.9 -27.2°
Sets 17:32:17 0° 14° (NNE) 3,673 7.7 -27.5°
